Regional Weather Roundup
Issued by NWS

Home | Current Version | Previous Version | Graphics & Text | Print | Product List | Glossary On
Versions: 1 2 3 4 5 6 7 8 9 10 11 12 13 14 15 16 17 18 19 20 21 22 23 24 25 26 27 28 29 30 31 32 33 34 35 36 37 38 39 40 41 42 43 44 45 46 47 48 49 50
000
ASUS44 KMEG 311900
RWRTN
TENNESSEE HOURLY STATE WEATHER ROUNDUP
NATIONAL WEATHER SERVICE MEMPHIS TN
100 PM CST SAT JAN 31 2015

TNZ002-004-019-021-049-052-054-088>092-312000-
WEST TENNESSEE

CITY           SKY/WX    TMP DP  RH WIND       PRES   REMARKS
MEMPHIS INTL   CLOUDY    45  23  42 E5        30.29F
NWS MEMPHIS      N/A     44 N/A N/A MISG        N/A
JACKSON        CLOUDY    45  23  42 E5        30.30F
DYERSBURG      CLOUDY    45  19  36 E8        30.31F
UNION CITY     PTSUNNY   39  25  56 CALM      30.30F
PARIS          SUNNY     41  21  45 CALM      30.32F
LEXINGTON      SUNNY     45  19  36 E6        30.30F
SAVANNAH       SUNNY     46  19  34 CALM      30.32F
$$

TNZ008-025-027-028-033-062-065-066-312000-
NORTH MIDDLE TENNESSEE

CITY           SKY/WX    TMP DP  RH WIND       PRES   REMARKS
NASHVILLE      CLOUDY    44  22  41 E5        30.34F
CLARKSVILLE    PTSUNNY   46  19  34 VRB3      30.33F
COOKEVILLE     SUNNY     43  14  31 CALM      30.32F
CROSSVILLE     CLOUDY    44   5  20 CALM      30.30F
$$

TNZ061-075-076-078-094-096-097-312000-
SOUTH MIDDLE TENNESSEE

CITY           SKY/WX    TMP DP  RH WIND       PRES   REMARKS
FAYETTEVILLE   SUNNY     45  16  31 MISG      30.31F
TULLAHOMA      SUNNY     43  10  26 CALM      30.32F
WINCHESTER     SUNNY     45  19  36 CALM      30.32F
COLUMBIA       SUNNY     46  25  42 CALM      30.30F
SHELBYVILLE    SUNNY     46  18  31 CALM      30.33F
$$

TNZ017-018-042-046-047-312000-
NORTHEAST TENNESSEE

CITY           SKY/WX    TMP DP  RH WIND       PRES   REMARKS
TRI CITIES     PTSUNNY   41   9  26 CALM      30.32F
ELIZABETHTON   CLEAR     41   3  20 W7        30.31F
$$

TNZ012-013-036-069-073-074-312000-
CENTRAL EAST TENNESSEE

CITY           SKY/WX    TMP DP  RH WIND       PRES   REMARKS
KNOXVILLE      PTSUNNY   42  18  37 CALM      30.34F
OAK RIDGE      MOSUNNY   43  12  28 CALM      30.35F
GATLINBURG     CLEAR     43  10  26 CALM      30.32F
$$

TNZ083-085-099-312000-
SOUTHEAST TENNESSEE

CITY           SKY/WX    TMP DP  RH WIND       PRES   REMARKS
CHATTANOOGA    PTSUNNY   46  17  31 VRB6      30.34F
$$

SKY/WX REPORTED AS FAIR MEANS FEW OR NO CLOUDS BELOW
12 THOUSAND FEET.



USA.gov is the U.S. government's official web portal to all federal, state and local government web resources and services.